User: anonymous   Login
Location: Unspecified
(0.0000°N, 0.0000°E)
Time: 09:22:34
(UTC+00:00)
Language:

NANOSAT 1B - Orbit

View from above orbital plane
View from above orbital plane
View from above satellite
View from above satellite

Ground track
Ground track

The orbit data is extracted from the following two-line orbital elements,

1 35685U 09041E   17327.86725778  .00000219  00000-0  32828-4 0  9990
2 35685  98.2595 307.7215 0057763 255.4312 104.0490 14.84023780449947
Epoch (UTC): 23 November 2017 20:48:51
Eccentricity: 0.0057763
inclination: 98.2595°
perigee height: 576 km
apogee height: 657 km
right ascension of ascending node: 307.7215°
argument of perigee: 255.4312°
revolutions per day: 14.84023780
mean anomaly at epoch: 104.0490°
orbit number at epoch: 44994

The dashed part of the orbit path shows where the satellite is in the earth's shadow,  

DLR